Погода в Бире

Россия / Еврейская автономная область     49°00′17″N   132°28′17″E
темп.,
°C
ветер,
м/с
пор.,
м/с
влажн.,
%
обл.,
%
осадки,
мм/ч
давл.,
гПа
погр.,
м
18 мая, вт
вт1801:00+12с015866 0.0 100010
04:00+10зсз11644 0.0 100011
07:00+13з006016 0.0 100042
10:00+20зюз36385 0.0 1000881
13:00+23юз463278 0.0 9991897
16:00+24ююз31132100 0.0 9971920
19:00+24з243599 0.0 996123
22:00+13ссз238493 0.2 100150
19 мая, ср
ср1901:00+11зсз2388100 0.1 100257
04:00+11ссв1190100 0.2 100029
07:00+12сз118163 0.0 1002113
10:00+18юз2353100 0.0 1002996
13:00+21зюз3437100 0.0 10021903
16:00+23з45285 0.0 10022334
19:00+21з353785 0.0 1002269
22:00+13сз115645 0.0 100411
20 мая, чт
чт2001:00+11св116256 0.0 100411
04:00+10всв117113 0.0 100310
07:00+12в127776 0.2 1001104
10:00+19ююз2459100 0.3 1001675
13:00+23з5746100 0.0 10021609
16:00+25з573894 0.0 10012164
19:00+22зсз36430 0.0 1001507
22:00+14сз22715 0.2 100420
21 мая, пт
пт2101:00+12ссз22667 0.0 100525
04:00+11с11621 0.0 100612
07:00+13с11525 0.0 100651
10:00+21ююв11334 0.0 1006635
13:00+25юв222640 0.0 10051469
16:00+27юв232597 0.0 10032095
19:00+24юв353996 0.0 1002457
22:00+16ссв11577 0.0 100412
22 мая, сб
сб2201:00+15с115955 0.0 100413
04:00+13ссв1162100 0.0 100412
07:00+15в126198 0.0 1005101
10:00+19вюв34443 0.0 1006837
13:00+23юв44354 0.0 10051161
16:00+24юв333561 0.0 10041344
19:00+22вюв344486 0.0 10041071
22:00+15в11715 0.0 100613